Weather History for Alexandria Esle, LA

Change the Weather History Date:

Sunday, April 27, 2014

  Actual Average Record
Temperature  
Mean Temperature 82 °F -  
Max Temperature 90 °F 80 °F 91 °F (2011)
Min Temperature 73 °F 57 °F 44 °F (2005)
Cooling Degree Days 16    
Growing Degree Days 32 (Base 50)    
Moisture  
Dew Point 69 °F    
Average Humidity 71    
Maximum Humidity 88    
Minimum Humidity 42    
Precipitation  
Precipitation 0.00 in - - ()
Sea Level Pressure  
Sea Level Pressure 29.71 in    
Wind  
Wind Speed 11 mph (South)    
Max Wind Speed 20 mph    
Max Gust Speed 31 mph    
Visibility 10 miles    
Events Rain    
Averages and records for this station are not official NWS values.
T = Trace of Precipitation, MM = Missing Value Source: NWS Daily Summary

Daily Weather History Graph

Daily Weather History Graph

Search for Another Location

Airport:

Trip Planner

Search our weather history database for the weather conditions in past years. The results will help you decide how hot, cold, wet, or windy it might be!

Date:

Astronomy

Apr. 27, 2014 Rise Set
Actual Time 6:28 AM CDT 7:46 PM CDT
Civil Twilight 6:02 AM CDT 8:11 PM CDT
Nautical Twilight 5:32 AM CDT 8:42 PM CDT
Astronomical Twilight 5:00 AM CDT 9:13 PM CDT
Moon 5:21 AM CDT (4/27) 6:25 PM CDT (4/27)
Length of Visible Light 14h 09m
Length of Day
13h 17m
Waning Crescent, 3% of the Moon is Illuminated
Apr 27
Waning Crescent
Apr 29
New
May 6
First Quarter
May 14
Full
May 21
Last Quarter

Hourly Weather History & Observations

Time (CDT) Temp. Heat Index Dew Point Humidity Pressure Visibility Wind Dir Wind Speed Gust Speed Precip Events Conditions
12:53 AM 73.9 °F - 68.0 °F 82% 29.82 in 10.0 mi SSE 8.1 mph - N/A   Clear
1:44 AM 73.9 °F - 68.0 °F 82% 29.80 in 10.0 mi SSE 6.9 mph - N/A   Mostly Cloudy
1:53 AM 73.9 °F - 68.0 °F 82% 29.79 in 10.0 mi SSE 6.9 mph 17.3 mph N/A   Mostly Cloudy
2:53 AM 73.9 °F - 69.1 °F 85% 29.79 in 10.0 mi South 10.4 mph 19.6 mph N/A   Overcast
3:10 AM 73.9 °F - 68.0 °F 82% 29.79 in 10.0 mi SSE 11.5 mph 19.6 mph 0.00 in Rain Light Rain
3:53 AM 73.9 °F - 68.0 °F 82% 29.78 in 10.0 mi SSE 9.2 mph - 0.00 in   Overcast
4:53 AM 73.9 °F - 69.1 °F 85% 29.78 in 10.0 mi SSE 8.1 mph - N/A   Overcast
5:53 AM 73.9 °F - 69.1 °F 85% 29.77 in 10.0 mi SSE 8.1 mph - N/A   Mostly Cloudy
6:53 AM 73.4 °F - 69.8 °F 88% 29.77 in 10.0 mi SSE 5.8 mph - N/A   Overcast
7:53 AM 75.0 °F - 69.1 °F 82% 29.76 in 10.0 mi South 8.1 mph - N/A   Overcast
8:53 AM 77.0 °F - 68.0 °F 74% 29.75 in 10.0 mi South 10.4 mph 23.0 mph N/A   Mostly Cloudy
9:10 AM 78.1 °F - 68.0 °F 71% 29.75 in 10.0 mi South 12.7 mph 21.9 mph N/A   Scattered Clouds
9:53 AM 81.0 °F 83.8 °F 68.0 °F 65% 29.73 in 10.0 mi South 12.7 mph 25.3 mph N/A   Partly Cloudy
10:26 AM 81.0 °F 84.1 °F 69.1 °F 67% 29.73 in 10.0 mi South 13.8 mph 23.0 mph N/A   Mostly Cloudy
10:53 AM 84.2 °F 87.3 °F 68.0 °F 58% 29.73 in 10.0 mi South 18.4 mph 26.5 mph N/A   Mostly Cloudy
11:53 AM 86.0 °F 90.1 °F 69.1 °F 57% 29.70 in 10.0 mi South 13.8 mph 31.1 mph N/A   Scattered Clouds
12:53 PM 87.1 °F 89.9 °F 66.9 °F 51% 29.68 in 10.0 mi South 18.4 mph 27.6 mph N/A   Scattered Clouds
1:53 PM 90.0 °F 91.3 °F 64.0 °F 42% 29.66 in 10.0 mi SSE 15.0 mph 28.8 mph N/A   Partly Cloudy
2:53 PM 89.6 °F 92.2 °F 66.2 °F 46% 29.65 in 10.0 mi SSW 19.6 mph 28.8 mph N/A   Scattered Clouds
3:53 PM 87.1 °F 91.3 °F 69.1 °F 55% 29.64 in 10.0 mi SSW 16.1 mph 25.3 mph 0.00 in   Partly Cloudy
4:53 PM 82.9 °F 87.5 °F 71.1 °F 67% 29.63 in 10.0 mi South 9.2 mph 21.9 mph 0.00 in Rain Light Rain
5:53 PM 82.0 °F 86.3 °F 71.1 °F 69% 29.62 in 10.0 mi South 12.7 mph 28.8 mph 0.00 in   Partly Cloudy
6:53 PM 82.0 °F 85.9 °F 70.0 °F 67% 29.61 in 10.0 mi South 15.0 mph 21.9 mph N/A   Mostly Cloudy
7:53 PM 80.1 °F 83.2 °F 70.0 °F 71% 29.62 in 10.0 mi South 11.5 mph 21.9 mph N/A   Scattered Clouds
8:53 PM 79.0 °F - 69.1 °F 72% 29.62 in 10.0 mi South 11.5 mph 21.9 mph N/A   Partly Cloudy
9:53 PM 79.0 °F - 68.0 °F 69% 29.64 in 10.0 mi South 12.7 mph 20.7 mph N/A   Overcast
10:53 PM 78.1 °F - 69.1 °F 74% 29.67 in 10.0 mi South 12.7 mph 21.9 mph N/A   Mostly Cloudy
11:13 PM 77.0 °F - 69.1 °F 76% 29.66 in 10.0 mi South 12.7 mph 23.0 mph N/A   Mostly Cloudy
11:53 PM 77.0 °F - 69.8 °F 78% 29.62 in 10.0 mi SSE 11.5 mph 19.6 mph N/A   Mostly Cloudy